Regional Weather Roundup
Issued by NWS

Home | Current Version | Previous Version | Text Only | Print | Product List | Glossary Off
Versions: 1 2 3 4 5 6 7 8 9 10 11 12 13 14 15 16 17 18 19 20 21 22 23 24 25 26 27 28 29 30 31 32 33 34 35 36 37 38 39 40 41 42 43 44 45 46 47 48 49 50

000
ASUS43 KFSD 242102
RWRSD

WEATHER ROUNDUP FOR SOUTH DAKOTA
NATIONAL WEATHER SERVICE SIOUX FALLS SD
400 PM CDT SAT SEP 24 2016

NOTE: "FAIR" INDICATES FEW OR NO CLOUDS BELOW 12,000 FEET WITH NO
SIGNIFICANT WEATHER AND/OR OBSTRUCTIONS TO VISIBILITY.


SDZ001>005-009-010-012>017-242200-
NORTHWEST AND NORTH CENTRAL SOUTH DAKOTA

CITY           SKY/WX    TMP DP  RH WIND       PRES   REMARKS
BUFFALO          N/A     61  53  75 W16       29.68R
FAITH            N/A     70  47  43 SW20G28   29.75F
MOBRIDGE       SUNNY     78  47  33 SW18G25   29.70F
$$

SDZ012>016-024>037-041>051-057-063-072>074-242200-
SOUTHWEST AND SOUTH CENTRAL SOUTH DAKOTA

CITY           SKY/WX    TMP DP  RH WIND       PRES   REMARKS
RAPID CTY ARPT SUNNY     65  42  43 W21G26    29.84R
PIERRE         SUNNY     76  42  29 SW18G25   29.77F
CUSTER         CLOUDY    46  39  76 W20G35    29.94R
ELLSWORTH AFB  MOSUNNY   66  43  42 W16G23    29.83
PHILIP         SUNNY     74  42  31 SW30G38   29.81S
PINE RIDGE     MOSUNNY   68  39  34 W20G28    29.90S
WINNER         FAIR      79  42  26 SW18G24   29.83F
$$

SDZ004>011-016>023-039-040-242200-
NORTHEAST SOUTH DAKOTA

CITY           SKY/WX    TMP DP  RH WIND       PRES   REMARKS
ABERDEEN       PTSUNNY   78  64  61 S16G25    29.77F
WATERTOWN      LGT RAIN  72  69  90 S9        29.84S
BROOKINGS      RAIN      75  68  78 S12       29.87R
SISSETON         N/A     79  68  69 S9        29.80S
$$

SDZ017-020-022-023-036>040-048>070-242200-
SOUTHEAST SOUTH DAKOTA

CITY           SKY/WX    TMP DP  RH WIND       PRES   REMARKS
SIOUX FALLS    LGT RAIN  68  65  90 S15       29.89R
HURON          CLOUDY    78  62  57 S17G24    29.81R
CHAMBERLAIN    SUNNY     80  47  32 SW12G17   29.82S
MITCHELL       CLOUDY    79  64  60 SW9       29.83R
YANKTON        CLOUDY    70  66  88 SE13      29.84F
$$

ABBREVIATIONS USED IN REMARKS
   TC - TEMPERATURE IN CELSIUS
  WCI - WIND CHILL INDEX
   HX - HEAT INDEX
  VSB - VISIBILITY





USA.gov is the U.S. government's official web portal to all federal, state and local government web resources and services.